Flag for U.S.A. Weather past 2 weeks in Fresno, California, U.S.A.

Now
58 °F

Passing clouds.


Feels Like: 58 °F
Forecast: 55 / 85 °F
Wind: No wind

Location: Fresno Air Terminal

Current Time: Mar 29, 2015 at 9:08:16 AM

Latest Report: Mar 29, 2015 at 7:53 AM


Visibility: 10 mi

Pressure: 30.09 "Hg

Humidity: 67%

Dew point: 47 °F

Location of FresnoLocation

Historic Weather in Fresno — Graph

°F

Fresno temperature yesterday

Maximum temperature yesterday: 82 °F (at 3:53 PM)
Minimum temperature yesterday: 56 °F (at 6:53 AM)
Average temperature yesterday: 69 °F

Past Weeks' High & Low Weather Summary

 TemperatureHumidityPressure
High90 °F (Mar 27, 3:53 PM)89% (Mar 25, 3:53 AM)30.26 "Hg (Mar 25, 3:53 AM)
Low49 °F (Mar 21, 6:53 AM)13% (Mar 15, 4:53 PM)29.93 "Hg (Mar 15, 5:53 PM)
Average67 °F49%30.08 "Hg
* Reported Mar 14 7:53 AM — Mar 29 7:53 AM, Fresno, Weather by CustomWeather, © 2015

Note: Actual official high and low records may vary slightly from our data, if they occured in-between our weather recording intervals... More about our weather records

Advertising

Fresno weather history for previous 24 hours

 ConditionsComfort  
Time TempWeatherWind HumidityBarometerVisibility
7:53 AM
Sun, Mar 29
58 °FPassing clouds.No wind67%30.09 "Hg10 mi
6:53 AM54 °FPassing clouds.No wind77%30.07 "Hg10 mi
5:53 AM55 °FPassing clouds.3 mph72%30.06 "Hg10 mi
4:53 AM57 °FPassing clouds.No wind67%30.06 "Hg10 mi
3:53 AM58 °FClear.No wind62%30.06 "Hg10 mi
2:53 AM57 °FClear.3 mph60%30.07 "Hg10 mi
1:53 AM61 °FClear.5 mph52%30.08 "Hg10 mi
12:53 AM63 °FPassing clouds.No wind48%30.07 "Hg10 mi
11:53 PM
Sat, Mar 28
65 °FPassing clouds.5 mph45%30.06 "Hg10 mi
10:53 PM66 °FPassing clouds.6 mph50%30.06 "Hg10 mi
9:53 PM69 °FPassing clouds.6 mph44%30.05 "Hg10 mi
8:53 PM72 °FPassing clouds.8 mph40%30.04 "Hg10 mi
7:53 PM75 °FScattered clouds.9 mph34%30.02 "Hg10 mi
6:53 PM78 °FScattered clouds.12 mph29%30.01 "Hg10 mi
5:53 PM81 °FScattered clouds.9 mph29%30.01 "Hg10 mi
4:53 PM82 °FScattered clouds.9 mph31%30.01 "Hg10 mi
3:53 PM82 °FScattered clouds.9 mph29%30.02 "Hg10 mi
2:53 PM81 °FScattered clouds.7 mph30%30.04 "Hg10 mi
1:53 PM78 °FPassing clouds.3 mph33%30.07 "Hg10 mi
12:53 PM77 °FPassing clouds.5 mph35%30.10 "Hg10 mi
11:53 AM74 °FPassing clouds.6 mph40%30.12 "Hg10 mi
10:53 AM70 °FPassing clouds.No wind47%30.12 "Hg10 mi
9:53 AM67 °FSunny.5 mph51%30.12 "Hg10 mi
Weather by CustomWeather, © 2015

See weather overviewHow to use our weather pages